Home > Weather > Tijuana > Past weeks

Flag for Mexico Weather for the Past 2 Weeks in Tijuana, Baja California, Mexico

Now
55 °F

Clear.


Feels Like: 54 °F
Forecast: 49 / 80 °F
Wind: 5 mph from Northeast

Location: Brown Field Municipal Airport

Current Time: Feb 7, 2016 at 1:08:16 AM

Latest Report: Feb 6, 2016 at 11:53 PM


Visibility: 10 mi

Pressure: 30.14 "Hg

Humidity: 28%

Dew point: 22 °F

Location of TijuanaLocation

Historic Weather in Tijuana — Graph

°F

Tijuana Temperature Yesterday

Maximum temperature yesterday: 76 °F (at 12:53 PM)
Minimum temperature yesterday: 44 °F (at 5:53 AM)
Average temperature yesterday: 61 °F

High & Low Weather Summary for the Past Weeks

 TemperatureHumidityPressure
High76 °F (Feb 6, 12:53 PM)100% (Jan 23, 9:01 PM)30.35 "Hg (Jan 23, 9:01 PM)
Low36 °F (Feb 2, 2:53 AM)14% (Feb 6, 12:53 PM)29.70 "Hg (Jan 31, 2:53 PM)
Average54 °F60%30.12 "Hg
* Reported Jan 22 11:53 PM — Feb 6 11:53 PM, Tijuana, Weather by CustomWeather, © 2016

Note: Actual official high and low records may vary slightly from our data, if they occured in-between our weather recording intervals... More about our weather records

Advertising

Tijuana Weather History for the Previous 24 Hours

 ConditionsComfort  
Time TempWeatherWind HumidityBarometerVisibility
11:53 PM
Sat, Feb 6
55 °FClear.5 mph28%30.14 "Hg10 mi
10:53 PM52 °FClear.6 mph34%30.14 "Hg10 mi
9:53 PM56 °FClear.9 mph29%30.14 "Hg10 mi
8:53 PM58 °FClear.10 mph26%30.14 "Hg10 mi
7:53 PM59 °FClear.8 mph25%30.14 "Hg10 mi
6:53 PM58 °FClear.7 mph36%30.13 "Hg10 mi
5:53 PM59 °FClear.6 mph44%30.14 "Hg10 mi
4:53 PM65 °FSunny.5 mph40%30.12 "Hg10 mi
3:53 PM70 °FSunny.7 mph30%30.11 "Hg10 mi
2:53 PM74 °FSunny.9 mph21%30.11 "Hg10 mi
1:53 PM76 °FSunny.5 mph16%30.12 "Hg10 mi
12:53 PM76 °FSunny.3 mph14%30.15 "Hg10 mi
11:53 AM74 °FSunny.3 mph17%30.20 "Hg10 mi
10:53 AM71 °FSunny.3 mph18%30.23 "Hg10 mi
9:53 AM71 °FSunny.3 mph19%30.24 "Hg10 mi
8:53 AM66 °FSunny.8 mph23%30.24 "Hg10 mi
7:53 AM61 °FSunny.13 mph25%30.22 "Hg10 mi
6:53 AM54 °FSunny.12 mph34%30.22 "Hg10 mi
5:53 AM44 °FClear.5 mph53%30.24 "Hg10 mi
4:53 AM52 °FClear.3 mph34%30.23 "Hg10 mi
3:53 AM54 °FClear.No wind31%30.23 "Hg10 mi
2:53 AM54 °FClear.3 mph31%30.23 "Hg10 mi
1:53 AM55 °FClear.7 mph31%30.23 "Hg10 mi
Weather by CustomWeather, © 2016

See weather overviewHow to use our weather pages